Tracking 30101 objects as of 14-Dec-2024
HD Live streaming from Space Station
objects crossing your sky now

FLOCK 4Q 20

Track FLOCK 4Q 20 now!
10-day predictions
FLOCK 4Q 20 is classified as:


NORAD ID: 58313
Int'l Code: 2023-174BK
Perigee: 478.9 km
Apogee: 492.6 km
Inclination: 97.4 °
Period: 94.2 minutes
Semi major axis: 6856 km
RCS: Unknown
Launch date: November 11, 2023
Source: United States (US)
Launch site: AIR FORCE WESTERN TEST RANGE (AFWTR)
Your satellite tracking list
Your tracking list is empty




NASA's NSSDC Master Catalog

Two Line Element Set (TLE):
1 58313U 23174BK  24349.06577267  .00020655  00000-0  73241-3 0  9997
2 58313  97.4428  62.9411 0009943 315.6622  44.3821 15.29065912 61121
Source of the keplerian elements: AFSPC